Regional Weather Roundup
Issued by NWS Newport/Morehead, NC

Current Version | Previous Version | Graphics & Text | Print | Product List | Glossary On
Versions: 1 2 3 4 5 6 7 8 9 10 11 12 13 14 15 16 17 18 19 20 21 22 23 24 25 26 27 28 29 30 31 32 33 34 35 36 37 38 39 40 41 42 43 44 45 46 47 48 49 50
000 ASUS42 KMHX 311313 RWRMHX WEATHER ROUNDUP FOR EASTERN NORTH CAROLINA NATIONAL WEATHER SERVICE NEWPORT/MOREHEAD CITY NC 900 AM EDT FRI JUL 31 2015 NOTE: "FAIR" INDICATES FEW OR NO CLOUDS BELOW 12,000 FEET WITH NO SIGNIFICANT WEATHER AND/OR OBSTRUCTIONS TO VISIBILITY NCZ015>017-031-032-045>047-102-103-311400- NORTH COAST CITY SKY/WX TMP DP RH WIND PRES REMARKS EDENTON N/A 76 72 87 N5 29.92R ELIZABETH CITY CLOUDY 77 74 90 N14 29.91S KITTY HAWK PTSUNNY 80 75 85 CALM 29.89S MANTEO PTSUNNY 80 75 87 NE5 29.90S $$ NCZ045>047-081-094-103-104-311400- CENTRAL COAST CITY SKY/WX TMP DP RH WIND PRES REMARKS FRISCO MOSUNNY 84 76 76 VRB5 29.89R SWANQUARTER N/A 82 N/A N/A NW3 29.85S $$ NCZ095-097-098-100-101-311400- SOUTHERN COAST CITY SKY/WX TMP DP RH WIND PRES REMARKS BEAUFORT SUNNY 84 77 79 NW9 29.90R CEDAR ISLAND N/A 84 N/A N/A NW10 29.94R JACKSONVILLE CLOUDY 82 75 79 N5 29.91R PINEY ISLAND MOSUNNY N/A N/A N/A MISG 29.89S WILMINGTON PTSUNNY 80 75 84 N5 29.92R $$ NCZ011>013-027>030-043-044-078>080-089-090>093-098-311400- COASTAL PLAIN CITY SKY/WX TMP DP RH WIND PRES REMARKS AHOSKIE SUNNY 78 70 76 N8 29.95R CLINTON SUNNY 82 73 75 N10G16 29.94R ELIZABETHTOWN MOSUNNY 79 71 77 CALM 29.93S GOLDSBORO SUNNY 81 73 76 N13 29.92R GREENVILLE MOSUNNY 81 73 78 NE8 29.95R HAVELOCK MOSUNNY 84 77 79 NW7 29.91R KENANSVILLE SUNNY N/A N/A N/A N9 29.94R KINSTON SUNNY 81 73 78 N9G20 29.94R NEW BERN PTSUNNY 80 75 84 N7 29.92R RICHLANDS CLOUDY 79 72 78 N7 29.93R ROCKY MOUNT SUNNY 81 72 74 N8 29.96R WASHINGTON SUNNY 79 73 82 NE8 29.92R WHITEVILLE MOSUNNY 80 71 76 NE6 29.93R $$ AMZ130-135-150-152-154-156-158-170-250-252-270-ANZ085-086-088-633-658-670-311400- MARINE OBSERVATIONS STATION/POSITION TIME TEMP WIND PRES WAVE SWELL AIR SEA DIR/SP/G HT/PER HT/PER (UTC) (F) (DEG/KT/KT) (MB) (FT/S) (FT/S) CHESAPEAKE LIGHT 1300 79 10/ 11/ 13 1013.8 64 E VA BEACH 1250 78 81 20/ 10/ 12 1012.1 4/ 9 3/ 9 DUCK 1200 72 62 10/ 7/ 9 1011.7 2 E DUCK 1211 71 N/A 2/ 9 OREGON INLET 1200 82 83 320/ 6/ 8 1012.3 13E OREGON INLT 1300 81 N/A 3/ 8 HATTERAS CG 1200 82 82 360/ 5/ 5 1011.7 DIAMOND BUOY 1250 82 85 360/ 10/ 12 1011.9 4/ 9 3/ 9 CAPE LOOKOUT 1300 82 320/ 6/ 7 1012.2 BEAUFORT LAB 1200 81 82 330/ 4/ 5 1011.5 30 SE NEW RVR IN NOT AVBL 27 SE WRIGHTSVLE 1200 79 82 320/ 6/ 8 N/A 5 SE WRIGHTSVLE 1208 81 82 340/ 6/ 8 1012.3 225 S CAPE HAT 1250 83 81 220/ 21/ 25 1014.1 10/ 8 41 SE CHARLESTON 1250 80 84 220/ 19/ 23 1012.9 4/ 5 2/ 8 $$

USA.gov is the U.S. government's official web portal to all federal, state and local government web resources and services.